Historyczne dane pomiarowe

Dodano dane terminowe – wersja testowa.

Dane z okresu 1951-2019

Wersja bazy: 1.34 [2019-03-16, lista zmian], aktualizacja planowana na 2019-04-15

Dane meteo z obszaru Polski uzyskane na podstawie danych udostępnionych przez Instytut Meteorologii i Gospodarki Wodnej – Państwowy Instytut Badawczy.

 

Wybierz Datę:    

       

TemperaturaWilgotnośćWiatrCiśnienieOpadyŚniegCzas trwania zjawisk
 Stacja t tx tn tng RH VA  wxwx mslp ppp RRR   cm mm wxwxwxwxwxwxwx
2019-06-19 22.3 29.0 16.1 14.9--- 2.0---- 0.0------------
2019-06-18 21.0 27.2 13.2 11.5--- 1.7---- 0.0------------
2019-06-17 19.6 23.8 14.9 14.5--- 2.3---- 0.0------------
2019-06-16 24.2 28.9 21.9 21.8--- 2.7---- 0.0------------
2019-06-15 25.4 31.6 18.7 18.1--- 2.7---- 0.0------------
2019-06-14 23.1 28.7 17.6 17.3--- 2.0---- 0.0------------
2019-06-13 26.6 34.1 21.3 19.8--- 2.3---- 5.2------------
2019-06-12 27.4 34.2 19.5 18.5--- 2.3---- 0.0------------
2019-06-11 27.0 33.8 18.5 17.3--- 2.0---- 0.0------------
2019-06-10 22.2 30.4 11.3 9.6--- 3.0---- 0.0------------
2019-06-09 20.7 26.0 14.5 13.0--- 1.7---- 0.0------------
2019-06-08 22.5 28.8 15.7 14.5--- 2.7---- 0.0------------
2019-06-07 22.6 28.7 15.7 15.0--- 2.0---- 0.0------------
2019-06-06 22.8 28.5 17.0 16.1--- 3.0---- 0.0------------
2019-06-05 23.0 28.9 15.5 14.1--- 2.7---- 0.0------------
2019-06-04 22.4 29.7 12.3 11.0--- 1.3---- 0.0------------
2019-06-03 20.8 27.3 12.4 10.9--- 2.0---- 0.0------------
2019-06-02 21.2 27.1 13.1 11.9--- 1.7---- 0.1------------
2019-06-01 19.5 24.3 13.3 11.4--- 1.7---- 0.0------------
2019-05-31 16.5 23.7 6.5 5.1--- 2.0---- 0.0------------
2019-05-30 13.4 19.7 4.7 3.4--- 1.7---- 0.0------------
2019-05-29 13.3 16.8 10.5 10.4--- 3.3---- 0.2------------
2019-05-28 18.4 24.5 15.8 15.5--- 1.3---- 7.6------------
2019-05-27 20.5 26.1 13.7 12.5--- 3.3---- 1.8------------
2019-05-26 15.6 20.6 8.9 7.8--- 4.0---- 0.0------------
2019-05-25 17.4 23.6 11.2 10.2--- 3.0---- 0.0------------
2019-05-24 16.3 21.2 11.1 10.6--- 1.7---- 0.0------------
2019-05-23 16.8 21.6 13.1 11.4--- 1.7---- 0.8------------
2019-05-22 15.8 19.7 11.1 10.4--- 3.0---- 0.2------------
2019-05-21 17.5 22.4 13.2 12.9--- 2.3---- 1.4------------
2019-05-20 19.7 26.2 14.9 13.4--- 1.7---- 15.9------------
2019-05-19 18.5 22.6 14.7 14.4--- 2.0---- 0.0------------
2019-05-18 16.6 23.0 12.0 10.3--- 2.0---- 17.2------------
2019-05-17 17.5 21.4 14.1 13.9--- 2.0---- 3.9------------
2019-05-16 15.3 18.0 12.3 12.1--- 1.7---- 16.0------------
2019-05-15 10.2 12.3 7.5 7.2--- 2.7---- 11.3------------
2019-05-14 7.1 8.4 5.7 5.4--- 1.7---- 9.9------------
2019-05-13 8.1 10.9 6.6 6.3--- 2.3---- 1.5------------
2019-05-12 13.4 22.1 7.3 5.4--- 2.3---- 4.8------------
2019-05-11 13.8 19.3 8.7 7.4--- 2.3---- 0.0------------
2019-05-10 12.1 16.1 8.5 7.7--- 1.0---- 0.5------------
2019-05-09 12.6 19.5 6.5 5.2--- 3.3---- 0.3------------
2019-05-08 8.2 15.4 -0.2 -2.4--- 2.0---- 0.0------------
2019-05-07 9.1 14.3 2.8 1.4--- 2.3---- 0.0------------
2019-05-06 8.2 15.1 0.3 -2.9--- 2.7---- 0.0------------
2019-05-05 7.6 12.0 4.1 3.7--- 2.7---- 0.0------------
2019-05-04 9.0 14.4 2.4 0.5--- 2.3---- 0.0------------
2019-05-03 9.6 13.7 6.9 5.9--- 3.3---- 0.2------------
2019-05-02 11.8 15.1 10.1 8.8--- 5.3---- 0.6------------
2019-05-01 12.8 20.1 5.9 3.5--- 2.0---- 0.0------------
2019-04-30 14.2 20.5 7.4 5.3--- 2.0---- 0.0------------
2019-04-29 16.1 22.9 10.9 10.7--- 3.0---- 0.0------------
2019-04-28 11.3 13.2 10.3 10.2--- 2.0---- 0.0------------
2019-04-27 15.7 22.7 11.0 8.6--- 4.3---- 0.0------------
2019-04-26 19.5 28.4 10.4 8.6--- 2.0---- 0.0------------
2019-04-25 19.1 25.8 13.3 12.2--- 1.7---- 0.0------------
2019-04-24 15.4 21.1 9.9 8.3--- 3.3---- 0.0------------
2019-04-23 13.5 19.4 6.0 4.1--- 5.0---- 0.0------------
2019-04-22 11.1 17.7 4.8 2.4--- 3.7---- 0.0------------
2019-04-21 10.2 17.3 6.5 4.9--- 2.7---- 0.8------------
2172.7 ms

 

Źródłem pochodzenia danych jest Instytut Meteorologii i Gospodarki Wodnej – Państwowy Instytut Badawczy. Dane Instytutu Meteorologii i Gospodarki Wodnej – Państwowego Instytutu Badawczego zostały przetworzone.

Dane źródłowe można odnaleźć na stronie https://dane.imgw.pl